Back to catalog

CZ-6A DEB

AlivePO
NORAD 64658·DEBRIS·🇨🇳 China

Launched Aug 6, 2024 from Taiyuan Satellite Launch Center

Loading…

Next Passes (next 24 hours)

TLE

FreshSource: Space-Track

Epoch: Sep 13, 2026, 23:26 UTC

1 64658U 24140AEY 26256.97666029  .00000707  00000-0  33594-3 0  9997
2 64658  88.9984 265.3929 0059123 266.5412  92.9013 14.17546762 97978

Track CZ-6A DEB in real time with AllMySat

Download on the App Store